Retour au catalogue

STARLINK-3978

ActifCommunicationsVLEO
NORAD 52635·PAYLOAD·🇺🇸 United States

Lancé May 14, 2022 depuis Cape Canaveral Space Force Station

Loading…

Prochains Passages (prochaines 24 heures)

TLE

FraisSource: CelesTrak SupGP

Époque: Sep 14, 2026, 21:00 UTC

1 52635C 22052AP  26257.87548611 -.00021199  00000+0 -68186-3 0  2576
2 52635  53.1572 117.2523 0001676  81.2109  16.5248 15.31704441    15

Suivez STARLINK-3978 en temps réel avec AllMySat

Download on the App Store